When you browse on this site, cookies collect data to enhance your experience and personalize the content and advertising you see.
Visit our Privacy Policy to learn more. By continuing to use the site, you agree to this use of cookies and data.
  • In Spain
  • List of Countries
  • For 7 days
  • Water Temperature
  • Weather Map
  • Weather Widgets
  • user-avatar
    Login

    Hourly Weather Rawson

    Today, 9 December, Monday

    Time Temperature Precipitation Wind Pressure Humidity
    00:00 +18°C° 0 mm 8 mps 754 mmHg 40%
    01:00 +18°C° 0 mm 7 mps 753 mmHg 38%
    02:00 +19°C° 0 mm 6 mps 753 mmHg 37%
    03:00 +20°C° 0 mm 6 mps 753 mmHg 39%
    04:00 +20°C° 0 mm 7 mps 753 mmHg 41%
    05:00 +20°C° 0 mm 7 mps 753 mmHg 42%
    06:00 +22°C° 0 mm 7 mps 753 mmHg 39%
    07:00 +23°C° 0 mm 8 mps 753 mmHg 35%
    08:00 +24°C° 0 mm 8 mps 753 mmHg 32%
    09:00 +27°C° 0 mm 8 mps 753 mmHg 29%
    10:00 +28°C° 0 mm 7 mps 752 mmHg 26%
    11:00 +29°C° 0 mm 7 mps 752 mmHg 23%
    12:00 +30°C° 0 mm 7 mps 752 mmHg 22%
    13:00 +32°C° 0 mm 7 mps 751 mmHg 20%
    14:00 +33°C° 0 mm 7 mps 751 mmHg 18%
    15:00 +33°C° 0 mm 7 mps 750 mmHg 17%
    16:00 +34°C° 0 mm 8 mps 750 mmHg 16%
    17:00 +34°C° 0 mm 8 mps 750 mmHg 16%
    18:00 +32°C° 0 mm 7 mps 750 mmHg 19%
    19:00 +29°C° 0 mm 6 mps 751 mmHg 22%
    20:00 +27°C° 0 mm 5 mps 751 mmHg 25%
    21:00 +26°C° 0 mm 6 mps 752 mmHg 26%
    22:00 +24°C° 0 mm 7 mps 752 mmHg 28%
    23:00 +23°C° 0 mm 8 mps 753 mmHg 30%

    Tomorrow, 10 December, Tuesday

    Time Temperature Precipitation Wind Pressure Humidity
    00:00 +23°C° 0 mm 9 mps 753 mmHg 32%
    01:00 +22°C° 0 mm 9 mps 753 mmHg 33%
    02:00 +21°C° 0 mm 9 mps 753 mmHg 35%
    03:00 +21°C° 0 mm 9 mps 753 mmHg 37%
    04:00 +20°C° 0 mm 8 mps 753 mmHg 38%
    05:00 +20°C° 0 mm 7 mps 754 mmHg 40%
    06:00 +21°C° 0 mm 7 mps 754 mmHg 38%
    07:00 +22°C° 0 mm 7 mps 754 mmHg 36%
    08:00 +23°C° 0 mm 8 mps 754 mmHg 34%
    09:00 +24°C° 0 mm 7 mps 754 mmHg 33%
    10:00 +26°C° 0 mm 6 mps 754 mmHg 32%
    11:00 +27°C° 0 mm 6 mps 754 mmHg 31%
    12:00 +26°C° 0 mm 6 mps 754 mmHg 33%
    13:00 +25°C° 0 mm 5 mps 754 mmHg 36%
    14:00 +23°C° 0 mm 5 mps 753 mmHg 39%
    15:00 +23°C° 0 mm 5 mps 753 mmHg 39%
    16:00 +23°C° 0 mm 5 mps 753 mmHg 39%
    17:00 +24°C° 0 mm 6 mps 752 mmHg 39%
    18:00 +23°C° 0 mm 6 mps 752 mmHg 41%
    19:00 +22°C° 0 mm 6 mps 752 mmHg 42%
    20:00 +22°C° 0 mm 6 mps 752 mmHg 44%
    21:00 +21°C° 0 mm 6 mps 752 mmHg 44%
    22:00 +21°C° 0 mm 5 mps 752 mmHg 45%
    23:00 +20°C° 0 mm 5 mps 752 mmHg 45%

    Day after tomorrow, 11 December, Wednesday

    Time Temperature Precipitation Wind Pressure Humidity
    00:00 +20°C° 0 mm 4 mps 752 mmHg 46%
    01:00 +20°C° 0 mm 4 mps 751 mmHg 47%
    02:00 +20°C° 0 mm 3 mps 751 mmHg 48%
    03:00 +20°C° 0 mm 3 mps 751 mmHg 49%
    04:00 +20°C° 0 mm 2 mps 750 mmHg 51%
    05:00 +21°C° 0 mm 1 mps 750 mmHg 52%
    06:00 +21°C° 0 mm 2 mps 750 mmHg 46%
    07:00 +22°C° 0 mm 3 mps 749 mmHg 39%
    08:00 +23°C° 0 mm 4 mps 749 mmHg 33%
    09:00 +24°C° 0 mm 6 mps 749 mmHg 30%
    10:00 +27°C° 0 mm 9 mps 748 mmHg 26%
    11:00 +28°C° 0 mm 11 mps 748 mmHg 23%
    12:00 +28°C° 0 mm 11 mps 748 mmHg 20%
    13:00 +28°C° 0 mm 11 mps 747 mmHg 18%
    14:00 +29°C° 0 mm 10 mps 746 mmHg 15%
    15:00 +28°C° 0 mm 11 mps 746 mmHg 16%
    16:00 +27°C° 0 mm 12 mps 746 mmHg 17%
    17:00 +27°C° 0 mm 13 mps 746 mmHg 18%
    18:00 +23°C° 0.3 mm 13 mps 747 mmHg 30%
    19:00 +19°C° 0.3 mm 12 mps 749 mmHg 42%
    20:00 +15°C° 0.3 mm 12 mps 750 mmHg 54%
    21:00 +14°C° 0 mm 13 mps 751 mmHg 55%
    22:00 +13°C° 0 mm 13 mps 752 mmHg 56%
    23:00 +12°C° 0 mm 13 mps 753 mmHg 58%

    12 December, Thursday

    Time Temperature Precipitation Wind Pressure Humidity
    00:00 +10°C° 0.1 mm 13 mps 754 mmHg 58%
    01:00 +10°C° 0.1 mm 12 mps 755 mmHg 58%
    02:00 +10°C° 0.1 mm 12 mps 755 mmHg 58%
    03:00 +10°C° 0 mm 12 mps 756 mmHg 57%
    04:00 +9°C° 0 mm 11 mps 757 mmHg 55%
    05:00 +9°C° 0 mm 11 mps 758 mmHg 54%
    06:00 +11°C° 0 mm 11 mps 758 mmHg 50%
    07:00 +12°C° 0 mm 11 mps 758 mmHg 47%
    08:00 +12°C° 0 mm 11 mps 759 mmHg 43%
    09:00 +13°C° 0 mm 10 mps 759 mmHg 42%
    10:00 +14°C° 0 mm 10 mps 760 mmHg 40%
    11:00 +16°C° 0 mm 9 mps 760 mmHg 39%
    12:00 +15°C° 0 mm 8 mps 760 mmHg 41%
    13:00 +15°C° 0 mm 7 mps 760 mmHg 42%
    14:00 +15°C° 0 mm 5 mps 759 mmHg 44%
    15:00 +15°C° 0 mm 5 mps 759 mmHg 45%
    16:00 +15°C° 0 mm 4 mps 759 mmHg 45%
    17:00 +16°C° 0 mm 3 mps 759 mmHg 46%
    18:00 +14°C° 0 mm 4 mps 759 mmHg 49%
    19:00 +13°C° 0 mm 5 mps 759 mmHg 53%
    20:00 +12°C° 0 mm 5 mps 758 mmHg 56%
    21:00 +11°C° 0 mm 6 mps 758 mmHg 56%
    22:00 +11°C° 0 mm 6 mps 758 mmHg 56%
    23:00 +11°C° 0 mm 7 mps 758 mmHg 56%

    13 December, Friday

    Time Temperature Precipitation Wind Pressure Humidity
    00:00 +11°C° 0 mm 7 mps 758 mmHg 58%
    01:00 +11°C° 0 mm 7 mps 757 mmHg 60%
    02:00 +11°C° 0 mm 7 mps 757 mmHg 62%
    03:00 +11°C° 0 mm 7 mps 757 mmHg 59%
    04:00 +13°C° 0 mm 6 mps 756 mmHg 56%
    05:00 +13°C° 0 mm 6 mps 756 mmHg 53%
    06:00 +15°C° 0 mm 6 mps 756 mmHg 46%
    07:00 +17°C° 0 mm 6 mps 755 mmHg 39%
    08:00 +20°C° 0 mm 6 mps 755 mmHg 32%
    09:00 +21°C° 0 mm 5 mps 755 mmHg 29%
    10:00 +22°C° 0 mm 5 mps 754 mmHg 27%
    11:00 +23°C° 0 mm 5 mps 754 mmHg 25%
    12:00 +25°C° 0 mm 5 mps 753 mmHg 24%
    13:00 +26°C° 0 mm 5 mps 753 mmHg 22%
    14:00 +26°C° 0 mm 5 mps 752 mmHg 21%
    15:00 +26°C° 0 mm 4 mps 752 mmHg 21%
    16:00 +26°C° 0 mm 4 mps 752 mmHg 21%
    17:00 +26°C° 0 mm 4 mps 751 mmHg 21%
    18:00 +25°C° 0 mm 4 mps 751 mmHg 24%
    19:00 +23°C° 0 mm 4 mps 751 mmHg 26%
    20:00 +22°C° 0 mm 4 mps 751 mmHg 29%
    21:00 +21°C° 0 mm 3 mps 752 mmHg 31%
    22:00 +21°C° 0 mm 3 mps 752 mmHg 33%
    23:00 +20°C° 0 mm 2 mps 752 mmHg 34%

    14 December, Saturday

    Time Temperature Precipitation Wind Pressure Humidity
    00:00 +20°C° 0 mm 3 mps 752 mmHg 36%
    01:00 +19°C° 0 mm 4 mps 752 mmHg 37%
    02:00 +19°C° 0 mm 5 mps 752 mmHg 38%
    03:00 +17°C° 0 mm 5 mps 753 mmHg 39%
    04:00 +17°C° 0 mm 5 mps 753 mmHg 41%
    05:00 +16°C° 0 mm 6 mps 753 mmHg 42%
    06:00 +17°C° 0 mm 6 mps 754 mmHg 39%
    07:00 +18°C° 0 mm 7 mps 754 mmHg 36%
    08:00 +20°C° 0 mm 8 mps 755 mmHg 33%
    09:00 +21°C° 0 mm 8 mps 755 mmHg 31%
    10:00 +23°C° 0 mm 8 mps 755 mmHg 30%
    11:00 +24°C° 0 mm 8 mps 756 mmHg 28%
    12:00 +23°C° 0 mm 8 mps 756 mmHg 30%
    13:00 +23°C° 0 mm 9 mps 756 mmHg 31%
    14:00 +23°C° 0 mm 9 mps 756 mmHg 33%
    15:00 +22°C° 0 mm 9 mps 757 mmHg 35%
    16:00 +21°C° 0 mm 9 mps 757 mmHg 38%
    17:00 +19°C° 0 mm 9 mps 757 mmHg 40%
    18:00 +18°C° 0 mm 7 mps 758 mmHg 44%
    19:00 +17°C° 0 mm 5 mps 758 mmHg 48%
    20:00 +17°C° 0 mm 4 mps 759 mmHg 51%
    21:00 +16°C° 0 mm 3 mps 759 mmHg 55%
    22:00 +16°C° 0 mm 2 mps 760 mmHg 59%
    23:00 +15°C° 0 mm 1 mps 760 mmHg 63%
    Show more